contact:dominique.lefevre@mio.osupytheas.fr, maurice.libes@osupytheas.fr, didier.mallarino@osupytheas.fr
Project:EMSO http://www.emso-fr.org/EMSO-France
Depth: 2436.0 m
Title:EMSO Ligure Ouest : Data MII capteur MICROCAT
DateTime_Computer,Latitude,Longitude,Temperature,Conductivity,Pressure,DateTime_Instrument
DateTime_Computer,Latitude,Longitude,degC,S m-1,dbar,DateTime_Instrument
2022-10-17T00:00:39Z,42.805,6.029,13.3019,4.60098,2470.707,2022-10-17T02:02:35Z
2022-10-17T00:03:42Z,42.805,6.029,13.3024,4.60105,2470.707,2022-10-17T02:05:38Z
2022-10-17T00:06:45Z,42.805,6.029,13.3024,4.60085,2470.67,2022-10-17T02:08:41Z
2022-10-17T00:09:49Z,42.805,6.029,13.3039,4.60112,2470.684,2022-10-17T02:11:44Z
2022-10-17T00:12:52Z,42.805,6.029,13.3019,4.60084,2470.73,2022-10-17T02:14:47Z
2022-10-17T00:15:55Z,42.805,6.029,13.3029,4.60093,2470.679,2022-10-17T02:17:50Z
2022-10-17T00:18:58Z,42.805,6.029,13.3016,4.60079,2470.717,2022-10-17T02:20:53Z
2022-10-17T00:22:01Z,42.805,6.029,13.3029,4.60109,2470.707,2022-10-17T02:23:56Z
2022-10-17T00:25:04Z,42.805,6.029,13.3021,4.60102,2470.693,2022-10-17T02:26:59Z
2022-10-17T00:28:07Z,42.805,6.029,13.3030,4.60096,2470.693,2022-10-17T02:30:02Z
2022-10-17T00:31:10Z,42.805,6.029,13.3014,4.60078,2470.656,2022-10-17T02:33:05Z
2022-10-17T00:34:13Z,42.805,6.029,13.3027,4.60079,2470.703,2022-10-17T02:36:08Z
2022-10-17T00:37:16Z,42.805,6.029,13.3024,4.60087,2470.707,2022-10-17T02:39:12Z
2022-10-17T00:40:19Z,42.805,6.029,13.3023,4.60077,2470.693,2022-10-17T02:42:15Z
2022-10-17T00:43:22Z,42.805,6.029,13.3019,4.60087,2470.67,2022-10-17T02:45:18Z
2022-10-17T00:46:25Z,42.805,6.029,13.3017,4.60064,2470.717,2022-10-17T02:48:21Z
2022-10-17T00:49:29Z,42.805,6.029,13.3023,4.60119,2470.67,2022-10-17T02:51:24Z
2022-10-17T00:52:32Z,42.805,6.029,13.3019,4.60074,2470.67,2022-10-17T02:54:27Z
2022-10-17T00:55:35Z,42.805,6.029,13.3019,4.60079,2470.684,2022-10-17T02:57:30Z
2022-10-17T00:58:38Z,42.805,6.029,13.3017,4.60084,2470.693,2022-10-17T03:00:33Z
2022-10-17T01:01:41Z,42.805,6.029,13.3023,4.60092,2470.67,2022-10-17T03:03:36Z
2022-10-17T01:04:44Z,42.805,6.029,13.3035,4.60084,2470.693,2022-10-17T03:06:39Z
2022-10-17T01:07:47Z,42.805,6.029,13.3014,4.60084,2470.67,2022-10-17T03:09:42Z
2022-10-17T01:10:50Z,42.805,6.029,13.3050,4.60110,2470.67,2022-10-17T03:12:45Z
2022-10-17T01:13:53Z,42.805,6.029,13.3028,4.60097,2470.67,2022-10-17T03:15:48Z
2022-10-17T01:16:56Z,42.805,6.029,13.3029,4.60099,2470.67,2022-10-17T03:18:52Z
2022-10-17T01:19:59Z,42.805,6.029,13.3018,4.60072,2470.693,2022-10-17T03:21:55Z
2022-10-17T01:23:02Z,42.805,6.029,13.3019,4.60085,2470.684,2022-10-17T03:24:58Z
2022-10-17T01:26:05Z,42.805,6.029,13.3017,4.60072,2470.693,2022-10-17T03:28:01Z
2022-10-17T01:29:09Z,42.805,6.029,13.3015,4.60068,2470.67,2022-10-17T03:31:04Z
2022-10-17T01:32:12Z,42.805,6.029,13.3030,4.60086,2470.693,2022-10-17T03:34:07Z
2022-10-17T01:35:15Z,42.805,6.029,13.3019,4.60075,2470.67,2022-10-17T03:37:10Z
2022-10-17T01:38:18Z,42.805,6.029,13.3021,4.60081,2470.684,2022-10-17T03:40:13Z
2022-10-17T01:41:21Z,42.805,6.029,13.3015,4.60074,2470.693,2022-10-17T03:43:16Z
2022-10-17T01:44:24Z,42.805,6.029,13.3015,4.60083,2470.707,2022-10-17T03:46:19Z
2022-10-17T01:47:27Z,42.805,6.029,13.3024,4.60093,2470.693,2022-10-17T03:49:22Z
2022-10-17T01:50:30Z,42.805,6.029,13.3026,4.60123,2470.693,2022-10-17T03:52:25Z
2022-10-17T01:53:33Z,42.805,6.029,13.3028,4.60107,2470.67,2022-10-17T03:55:28Z
2022-10-17T01:56:36Z,42.805,6.029,13.3029,4.60092,2470.684,2022-10-17T03:58:32Z
2022-10-17T01:59:39Z,42.805,6.029,13.3027,4.60093,2470.684,2022-10-17T04:01:35Z
2022-10-17T02:02:42Z,42.805,6.029,13.3018,4.60074,2470.67,2022-10-17T04:04:38Z
2022-10-17T02:05:45Z,42.805,6.029,13.3025,4.60081,2470.637,2022-10-17T04:07:41Z
2022-10-17T02:08:49Z,42.805,6.029,13.3025,4.60075,2470.646,2022-10-17T04:10:44Z
2022-10-17T02:11:52Z,42.805,6.029,13.3015,4.60072,2470.67,2022-10-17T04:13:47Z
2022-10-17T02:14:55Z,42.805,6.029,13.3019,4.60077,2470.693,2022-10-17T04:16:50Z
2022-10-17T02:17:58Z,42.805,6.029,13.3035,4.60105,2470.684,2022-10-17T04:19:53Z
2022-10-17T02:21:01Z,42.805,6.029,13.3024,4.60080,2470.656,2022-10-17T04:22:56Z
2022-10-17T02:24:04Z,42.805,6.029,13.3020,4.60077,2470.67,2022-10-17T04:25:59Z
2022-10-17T02:27:07Z,42.805,6.029,13.3021,4.60077,2470.67,2022-10-17T04:29:02Z
2022-10-17T02:30:10Z,42.805,6.029,13.3025,4.60087,2470.646,2022-10-17T04:32:05Z
2022-10-17T02:33:13Z,42.805,6.029,13.3026,4.60076,2470.646,2022-10-17T04:35:08Z
2022-10-17T02:36:16Z,42.805,6.029,13.3026,4.60094,2470.67,2022-10-17T04:38:12Z
2022-10-17T02:39:19Z,42.805,6.029,13.3024,4.60114,2470.646,2022-10-17T04:41:15Z
2022-10-17T02:42:22Z,42.805,6.029,13.3026,4.60100,2470.646,2022-10-17T04:44:18Z
2022-10-17T02:45:25Z,42.805,6.029,13.3028,4.60113,2470.67,2022-10-17T04:47:21Z
2022-10-17T02:48:29Z,42.805,6.029,13.3040,4.60122,2470.684,2022-10-17T04:50:24Z
2022-10-17T02:51:32Z,42.805,6.029,13.3030,4.60112,2470.684,2022-10-17T04:53:27Z
2022-10-17T02:54:35Z,42.805,6.029,13.3039,4.60129,2470.656,2022-10-17T04:56:30Z
2022-10-17T02:57:38Z,42.805,6.029,13.3049,4.60122,2470.67,2022-10-17T04:59:33Z
2022-10-17T03:00:41Z,42.805,6.029,13.3026,4.60129,2470.661,2022-10-17T05:02:36Z
2022-10-17T03:03:44Z,42.805,6.029,13.3036,4.60129,2470.693,2022-10-17T05:05:39Z
2022-10-17T03:06:47Z,42.805,6.029,13.3031,4.60107,2470.684,2022-10-17T05:08:42Z
2022-10-17T03:09:50Z,42.805,6.029,13.3026,4.60117,2470.646,2022-10-17T05:11:45Z
2022-10-17T03:12:53Z,42.805,6.029,13.3034,4.60094,2470.67,2022-10-17T05:14:48Z
2022-10-17T03:15:56Z,42.805,6.029,13.3023,4.60104,2470.661,2022-10-17T05:17:52Z
2022-10-17T03:18:59Z,42.805,6.029,13.3041,4.60123,2470.646,2022-10-17T05:20:55Z
2022-10-17T03:22:02Z,42.805,6.029,13.3036,4.60132,2470.67,2022-10-17T05:23:58Z
2022-10-17T03:25:05Z,42.805,6.029,13.3019,4.60093,2470.67,2022-10-17T05:27:01Z
2022-10-17T03:28:09Z,42.805,6.029,13.3026,4.60089,2470.661,2022-10-17T05:30:04Z
2022-10-17T03:31:12Z,42.805,6.029,13.3023,4.60094,2470.693,2022-10-17T05:33:07Z
2022-10-17T03:34:15Z,42.805,6.029,13.3030,4.60112,2470.646,2022-10-17T05:36:10Z
2022-10-17T03:37:18Z,42.805,6.029,13.3022,4.60134,2470.661,2022-10-17T05:39:13Z
2022-10-17T03:40:21Z,42.805,6.029,13.3038,4.60121,2470.646,2022-10-17T05:42:16Z
2022-10-17T03:43:24Z,42.805,6.029,13.3048,4.60122,2470.661,2022-10-17T05:45:19Z
2022-10-17T03:46:27Z,42.805,6.029,13.3036,4.60114,2470.67,2022-10-17T05:48:22Z
2022-10-17T03:49:30Z,42.805,6.029,13.3035,4.60127,2470.67,2022-10-17T05:51:25Z
2022-10-17T03:52:33Z,42.805,6.029,13.3031,4.60110,2470.646,2022-10-17T05:54:29Z
2022-10-17T03:55:36Z,42.805,6.029,13.3034,4.60119,2470.646,2022-10-17T05:57:32Z
2022-10-17T03:58:39Z,42.805,6.029,13.3053,4.60125,2470.684,2022-10-17T06:00:35Z
2022-10-17T04:01:42Z,42.805,6.029,13.3021,4.60094,2470.67,2022-10-17T06:03:38Z
2022-10-17T04:04:46Z,42.805,6.029,13.3025,4.60104,2470.684,2022-10-17T06:06:41Z
2022-10-17T04:07:49Z,42.805,6.029,13.3039,4.60128,2470.646,2022-10-17T06:09:44Z
2022-10-17T04:10:52Z,42.805,6.029,13.3026,4.60140,2470.684,2022-10-17T06:12:47Z
2022-10-17T04:13:55Z,42.805,6.029,13.3025,4.60129,2470.646,2022-10-17T06:15:50Z
2022-10-17T04:16:58Z,42.805,6.029,13.3024,4.60108,2470.67,2022-10-17T06:18:53Z
2022-10-17T04:20:01Z,42.805,6.029,13.3035,4.60145,2470.67,2022-10-17T06:21:56Z
2022-10-17T04:23:04Z,42.805,6.029,13.3037,4.60153,2470.646,2022-10-17T06:24:59Z
2022-10-17T04:26:07Z,42.805,6.029,13.3053,4.60085,2470.646,2022-10-17T06:28:02Z
2022-10-17T04:29:10Z,42.805,6.029,13.3027,4.60159,2470.661,2022-10-17T06:31:05Z
2022-10-17T04:32:13Z,42.805,6.029,13.3054,4.60149,2470.624,2022-10-17T06:34:09Z
2022-10-17T04:35:16Z,42.805,6.029,13.3077,4.60125,2470.624,2022-10-17T06:37:12Z
2022-10-17T04:38:19Z,42.805,6.029,13.3043,4.60142,2470.661,2022-10-17T06:40:15Z
2022-10-17T04:41:22Z,42.805,6.029,13.3059,4.60152,2470.646,2022-10-17T06:43:18Z
2022-10-17T04:44:26Z,42.805,6.029,13.3046,4.60130,2470.646,2022-10-17T06:46:21Z
2022-10-17T04:47:29Z,42.805,6.029,13.3055,4.60147,2470.624,2022-10-17T06:49:24Z
2022-10-17T04:50:32Z,42.805,6.029,13.3079,4.60119,2470.661,2022-10-17T06:52:27Z
2022-10-17T04:53:35Z,42.805,6.029,13.3037,4.60139,2470.637,2022-10-17T06:55:30Z
2022-10-17T04:56:38Z,42.805,6.029,13.3054,4.60141,2470.646,2022-10-17T06:58:33Z
2022-10-17T04:59:41Z,42.805,6.029,13.3026,4.60135,2470.646,2022-10-17T07:01:36Z
2022-10-17T05:02:44Z,42.805,6.029,13.3040,4.60152,2470.646,2022-10-17T07:04:39Z
2022-10-17T05:05:47Z,42.805,6.029,13.3049,4.60117,2470.624,2022-10-17T07:07:42Z
2022-10-17T05:08:50Z,42.805,6.029,13.3041,4.60132,2470.646,2022-10-17T07:10:45Z
2022-10-17T05:11:53Z,42.805,6.029,13.3024,4.60111,2470.624,2022-10-17T07:13:49Z
2022-10-17T05:14:56Z,42.805,6.029,13.3034,4.60099,2470.661,2022-10-17T07:16:52Z
2022-10-17T05:17:59Z,42.805,6.029,13.3053,4.60120,2470.624,2022-10-17T07:19:55Z
2022-10-17T05:21:02Z,42.805,6.029,13.3056,4.60108,2470.684,2022-10-17T07:22:58Z
2022-10-17T05:24:06Z,42.805,6.029,13.3045,4.60085,2470.661,2022-10-17T07:26:01Z
2022-10-17T05:27:09Z,42.805,6.029,13.3039,4.60118,2470.661,2022-10-17T07:29:04Z
2022-10-17T05:30:12Z,42.805,6.029,13.3032,4.60119,2470.624,2022-10-17T07:32:07Z
2022-10-17T05:33:15Z,42.805,6.029,13.3062,4.60102,2470.624,2022-10-17T07:35:10Z
2022-10-17T05:36:18Z,42.805,6.029,13.3061,4.60137,2470.646,2022-10-17T07:38:13Z
2022-10-17T05:39:21Z,42.805,6.029,13.3039,4.60099,2470.624,2022-10-17T07:41:16Z
2022-10-17T05:42:24Z,42.805,6.029,13.3027,4.60079,2470.637,2022-10-17T07:44:19Z
2022-10-17T05:45:27Z,42.805,6.029,13.3036,4.60117,2470.637,2022-10-17T07:47:22Z
2022-10-17T05:48:30Z,42.805,6.029,13.3045,4.60112,2470.646,2022-10-17T07:50:26Z
2022-10-17T05:51:33Z,42.805,6.029,13.3036,4.60122,2470.637,2022-10-17T07:53:29Z
2022-10-17T05:54:36Z,42.805,6.029,13.3041,4.60177,2470.624,2022-10-17T07:56:32Z
2022-10-17T05:57:39Z,42.805,6.029,13.3042,4.60083,2470.646,2022-10-17T07:59:35Z
2022-10-17T06:00:42Z,42.805,6.029,13.3034,4.60102,2470.646,2022-10-17T08:02:38Z
2022-10-17T06:03:46Z,42.805,6.029,13.3055,4.60137,2470.661,2022-10-17T08:05:41Z
2022-10-17T06:06:49Z,42.805,6.029,13.3039,4.60158,2470.661,2022-10-17T08:08:44Z
2022-10-17T06:09:52Z,42.805,6.029,13.3027,4.60154,2470.661,2022-10-17T08:11:47Z
2022-10-17T06:12:55Z,42.805,6.029,13.3033,4.60099,2470.646,2022-10-17T08:14:50Z
2022-10-17T06:15:58Z,42.805,6.029,13.3036,4.60135,2470.684,2022-10-17T08:17:53Z
2022-10-17T06:19:01Z,42.805,6.029,13.3054,4.60182,2470.637,2022-10-17T08:20:56Z
2022-10-17T06:22:04Z,42.805,6.029,13.3051,4.60150,2470.637,2022-10-17T08:23:59Z
2022-10-17T06:25:07Z,42.805,6.029,13.3073,4.60195,2470.67,2022-10-17T08:27:02Z
2022-10-17T06:28:10Z,42.805,6.029,13.3058,4.60140,2470.646,2022-10-17T08:30:06Z
2022-10-17T06:31:13Z,42.805,6.029,13.3061,4.60127,2470.67,2022-10-17T08:33:09Z
2022-10-17T06:34:16Z,42.805,6.029,13.3061,4.60110,2470.661,2022-10-17T08:36:12Z
2022-10-17T06:37:19Z,42.805,6.029,13.3043,4.60134,2470.646,2022-10-17T08:39:15Z
2022-10-17T06:40:23Z,42.805,6.029,13.3057,4.60134,2470.646,2022-10-17T08:42:18Z
2022-10-17T06:43:26Z,42.805,6.029,13.3070,4.60091,2470.67,2022-10-17T08:45:21Z
2022-10-17T06:46:29Z,42.805,6.029,13.3067,4.60101,2470.684,2022-10-17T08:48:24Z
2022-10-17T06:49:32Z,42.805,6.029,13.3057,4.60123,2470.661,2022-10-17T08:51:27Z
2022-10-17T06:52:35Z,42.805,6.029,13.3062,4.60088,2470.684,2022-10-17T08:54:30Z
2022-10-17T06:55:38Z,42.805,6.029,13.3053,4.60133,2470.684,2022-10-17T08:57:33Z
2022-10-17T06:58:41Z,42.805,6.029,13.3033,4.60130,2470.707,2022-10-17T09:00:36Z
2022-10-17T07:01:44Z,42.805,6.029,13.3069,4.60087,2470.684,2022-10-17T09:03:39Z
2022-10-17T07:04:47Z,42.805,6.029,13.3036,4.60117,2470.684,2022-10-17T09:06:42Z
2022-10-17T07:07:50Z,42.805,6.029,13.3036,4.60104,2470.646,2022-10-17T09:09:46Z
2022-10-17T07:10:53Z,42.805,6.029,13.3041,4.60122,2470.646,2022-10-17T09:12:49Z
2022-10-17T07:13:56Z,42.805,6.029,13.3051,4.60102,2470.661,2022-10-17T09:15:52Z
2022-10-17T07:16:59Z,42.805,6.029,13.3051,4.60113,2470.661,2022-10-17T09:18:55Z
2022-10-17T07:20:03Z,42.805,6.029,13.3051,4.60117,2470.661,2022-10-17T09:21:58Z
2022-10-17T07:23:06Z,42.805,6.029,13.3072,4.60104,2470.684,2022-10-17T09:25:01Z
2022-10-17T07:26:09Z,42.805,6.029,13.3042,4.60149,2470.646,2022-10-17T09:28:04Z
2022-10-17T07:29:12Z,42.805,6.029,13.3070,4.60162,2470.707,2022-10-17T09:31:07Z
2022-10-17T07:32:15Z,42.805,6.029,13.3083,4.60099,2470.684,2022-10-17T09:34:10Z
2022-10-17T07:35:18Z,42.805,6.029,13.3088,4.60117,2470.67,2022-10-17T09:37:13Z
2022-10-17T07:38:21Z,42.805,6.029,13.3089,4.60134,2470.684,2022-10-17T09:40:16Z
2022-10-17T07:41:24Z,42.805,6.029,13.3080,4.60141,2470.693,2022-10-17T09:43:19Z
2022-10-17T07:44:27Z,42.805,6.029,13.3101,4.60105,2470.67,2022-10-17T09:46:22Z
2022-10-17T07:47:30Z,42.805,6.029,13.3082,4.60117,2470.693,2022-10-17T09:49:26Z
2022-10-17T07:50:33Z,42.805,6.029,13.3073,4.60128,2470.684,2022-10-17T09:52:29Z
2022-10-17T07:53:36Z,42.805,6.029,13.3078,4.60115,2470.67,2022-10-17T09:55:32Z
2022-10-17T07:56:39Z,42.805,6.029,13.3078,4.60092,2470.684,2022-10-17T09:58:35Z
2022-10-17T07:59:43Z,42.805,6.029,13.3084,4.60109,2470.661,2022-10-17T10:01:38Z
2022-10-17T08:02:46Z,42.805,6.029,13.3049,4.60108,2470.684,2022-10-17T10:04:41Z
2022-10-17T08:05:49Z,42.805,6.029,13.3071,4.60160,2470.67,2022-10-17T10:07:44Z
2022-10-17T08:08:52Z,42.805,6.029,13.3066,4.60116,2470.684,2022-10-17T10:10:47Z
2022-10-17T08:11:55Z,42.805,6.029,13.3074,4.60097,2470.693,2022-10-17T10:13:50Z
2022-10-17T08:14:58Z,42.805,6.029,13.3023,4.60127,2470.707,2022-10-17T10:16:53Z
2022-10-17T08:18:01Z,42.805,6.029,13.3015,4.60079,2470.693,2022-10-17T10:19:56Z
2022-10-17T08:21:04Z,42.805,6.029,13.3015,4.60075,2470.693,2022-10-17T10:22:59Z
2022-10-17T08:24:07Z,42.805,6.029,13.3014,4.60074,2470.693,2022-10-17T10:26:03Z
2022-10-17T08:27:10Z,42.805,6.029,13.3011,4.60072,2470.693,2022-10-17T10:29:06Z
2022-10-17T08:30:13Z,42.805,6.029,13.3015,4.60069,2470.73,2022-10-17T10:32:09Z
2022-10-17T08:33:16Z,42.805,6.029,13.3009,4.60067,2470.684,2022-10-17T10:35:12Z
2022-10-17T08:36:20Z,42.805,6.029,13.3014,4.60073,2470.717,2022-10-17T10:38:15Z
2022-10-17T08:39:23Z,42.805,6.029,13.3013,4.60096,2470.754,2022-10-17T10:41:18Z
2022-10-17T08:42:26Z,42.805,6.029,13.3011,4.60065,2470.693,2022-10-17T10:44:21Z
2022-10-17T08:45:29Z,42.805,6.029,13.3014,4.60064,2470.73,2022-10-17T10:47:24Z
2022-10-17T08:48:32Z,42.805,6.029,13.3012,4.60060,2470.73,2022-10-17T10:50:27Z
2022-10-17T08:51:35Z,42.805,6.029,13.3014,4.60062,2470.717,2022-10-17T10:53:30Z
2022-10-17T08:54:38Z,42.805,6.029,13.3014,4.60065,2470.73,2022-10-17T10:56:33Z
2022-10-17T08:57:41Z,42.805,6.029,13.3011,4.60064,2470.73,2022-10-17T10:59:36Z
2022-10-17T09:00:44Z,42.805,6.029,13.3011,4.60059,2470.693,2022-10-17T11:02:40Z
2022-10-17T09:03:47Z,42.805,6.029,13.3015,4.60058,2470.693,2022-10-17T11:05:43Z
2022-10-17T09:06:50Z,42.805,6.029,13.3012,4.60061,2470.717,2022-10-17T11:08:46Z
2022-10-17T09:09:53Z,42.805,6.029,13.3009,4.60059,2470.717,2022-10-17T11:11:49Z
2022-10-17T09:12:56Z,42.805,6.029,13.3010,4.60059,2470.717,2022-10-17T11:14:52Z
2022-10-17T09:16:00Z,42.805,6.029,13.3006,4.60060,2470.717,2022-10-17T11:17:55Z
2022-10-17T09:19:03Z,42.805,6.029,13.3011,4.60062,2470.717,2022-10-17T11:20:58Z
2022-10-17T09:22:06Z,42.805,6.029,13.3014,4.60056,2470.777,2022-10-17T11:24:01Z
2022-10-17T09:25:09Z,42.805,6.029,13.3011,4.60062,2470.693,2022-10-17T11:27:04Z
2022-10-17T09:28:12Z,42.805,6.029,13.3014,4.60057,2470.693,2022-10-17T11:30:07Z
2022-10-17T09:31:15Z,42.805,6.029,13.3009,4.60067,2470.717,2022-10-17T11:33:10Z
2022-10-17T09:34:18Z,42.805,6.029,13.3011,4.60064,2470.74,2022-10-17T11:36:13Z
2022-10-17T09:37:21Z,42.805,6.029,13.3010,4.60066,2470.74,2022-10-17T11:39:16Z
2022-10-17T09:40:24Z,42.805,6.029,13.3016,4.60061,2470.777,2022-10-17T11:42:20Z
2022-10-17T09:43:27Z,42.805,6.029,13.3010,4.60064,2470.754,2022-10-17T11:45:23Z
2022-10-17T09:46:30Z,42.805,6.029,13.3011,4.60072,2470.717,2022-10-17T11:48:26Z
2022-10-17T09:49:33Z,42.805,6.029,13.3012,4.60069,2470.717,2022-10-17T11:51:29Z
2022-10-17T09:52:37Z,42.805,6.029,13.3013,4.60059,2470.74,2022-10-17T11:54:32Z
2022-10-17T09:55:40Z,42.805,6.029,13.3011,4.60064,2470.717,2022-10-17T11:57:35Z
2022-10-17T09:58:43Z,42.805,6.029,13.3018,4.60068,2470.74,2022-10-17T12:00:38Z
2022-10-17T10:01:46Z,42.805,6.029,13.3014,4.60063,2470.754,2022-10-17T12:03:41Z
2022-10-17T10:04:49Z,42.805,6.029,13.3013,4.60064,2470.693,2022-10-17T12:06:44Z
2022-10-17T10:07:52Z,42.805,6.029,13.3011,4.60062,2470.74,2022-10-17T12:09:47Z
2022-10-17T10:10:55Z,42.805,6.029,13.3014,4.60064,2470.717,2022-10-17T12:12:50Z
2022-10-17T10:13:58Z,42.805,6.029,13.3026,4.60074,2470.787,2022-10-17T12:15:53Z
2022-10-17T10:17:01Z,42.805,6.029,13.3015,4.60062,2470.763,2022-10-17T12:18:57Z
2022-10-17T10:20:04Z,42.805,6.029,13.3047,4.60092,2470.754,2022-10-17T12:22:00Z
2022-10-17T10:23:07Z,42.805,6.029,13.3021,4.60092,2470.8,2022-10-17T12:25:03Z
2022-10-17T10:26:10Z,42.805,6.029,13.3011,4.60067,2470.763,2022-10-17T12:28:06Z
2022-10-17T10:29:14Z,42.805,6.029,13.3019,4.60059,2470.717,2022-10-17T12:31:09Z
2022-10-17T10:32:17Z,42.805,6.029,13.3046,4.60112,2470.754,2022-10-17T12:34:12Z
2022-10-17T10:35:20Z,42.805,6.029,13.3026,4.60090,2470.763,2022-10-17T12:37:15Z
2022-10-17T10:38:23Z,42.805,6.029,13.3019,4.60073,2470.777,2022-10-17T12:40:18Z
2022-10-17T10:41:26Z,42.805,6.029,13.3027,4.60078,2470.754,2022-10-17T12:43:21Z
2022-10-17T10:44:29Z,42.805,6.029,13.3030,4.60077,2470.763,2022-10-17T12:46:24Z
2022-10-17T10:47:32Z,42.805,6.029,13.3040,4.60080,2470.754,2022-10-17T12:49:27Z
2022-10-17T10:50:35Z,42.805,6.029,13.3047,4.60091,2470.763,2022-10-17T12:52:30Z
2022-10-17T10:53:38Z,42.805,6.029,13.3054,4.60084,2470.74,2022-10-17T12:55:34Z
2022-10-17T10:56:41Z,42.805,6.029,13.3059,4.60102,2470.74,2022-10-17T12:58:37Z
2022-10-17T10:59:44Z,42.805,6.029,13.3054,4.60102,2470.74,2022-10-17T13:01:40Z
2022-10-17T11:02:47Z,42.805,6.029,13.3044,4.60132,2470.763,2022-10-17T13:04:43Z
2022-10-17T11:05:51Z,42.805,6.029,13.3046,4.60109,2470.763,2022-10-17T13:07:46Z
2022-10-17T11:08:54Z,42.805,6.029,13.3042,4.60089,2470.75,2022-10-17T13:10:49Z
2022-10-17T11:11:57Z,42.805,6.029,13.3043,4.60104,2470.754,2022-10-17T13:13:52Z
2022-10-17T11:15:00Z,42.805,6.029,13.3043,4.60124,2470.74,2022-10-17T13:16:55Z
2022-10-17T11:18:03Z,42.805,6.029,13.3041,4.60142,2470.74,2022-10-17T13:19:58Z
2022-10-17T11:21:06Z,42.805,6.029,13.3042,4.60102,2470.763,2022-10-17T13:23:01Z
2022-10-17T11:24:09Z,42.805,6.029,13.3036,4.60111,2470.717,2022-10-17T13:26:04Z
2022-10-17T11:27:12Z,42.805,6.029,13.3034,4.60096,2470.763,2022-10-17T13:29:07Z
2022-10-17T11:30:15Z,42.805,6.029,13.3039,4.60117,2470.763,2022-10-17T13:32:11Z
2022-10-17T11:33:18Z,42.805,6.029,13.3037,4.60128,2470.777,2022-10-17T13:35:14Z
2022-10-17T11:36:21Z,42.805,6.029,13.3051,4.60121,2470.754,2022-10-17T13:38:17Z
2022-10-17T11:39:24Z,42.805,6.029,13.3055,4.60133,2470.754,2022-10-17T13:41:20Z
2022-10-17T11:42:28Z,42.805,6.029,13.3046,4.60104,2470.777,2022-10-17T13:44:23Z
2022-10-17T11:45:31Z,42.805,6.029,13.3043,4.60122,2470.754,2022-10-17T13:47:26Z
2022-10-17T11:48:34Z,42.805,6.029,13.3034,4.60121,2470.777,2022-10-17T13:50:29Z
2022-10-17T11:51:37Z,42.805,6.029,13.3034,4.60132,2470.777,2022-10-17T13:53:32Z
2022-10-17T11:54:40Z,42.805,6.029,13.3057,4.60142,2470.777,2022-10-17T13:56:35Z
2022-10-17T11:57:43Z,42.805,6.029,13.3036,4.60115,2470.717,2022-10-17T13:59:38Z
2022-10-17T12:00:46Z,42.805,6.029,13.3036,4.60084,2470.763,2022-10-17T14:02:41Z
2022-10-17T12:03:49Z,42.805,6.029,13.3039,4.60085,2470.74,2022-10-17T14:05:44Z
2022-10-17T12:06:52Z,42.805,6.029,13.3029,4.60113,2470.74,2022-10-17T14:08:48Z
2022-10-17T12:09:55Z,42.805,6.029,13.3036,4.60117,2470.74,2022-10-17T14:11:51Z
2022-10-17T12:12:58Z,42.805,6.029,13.3042,4.60131,2470.777,2022-10-17T14:14:54Z
2022-10-17T12:16:01Z,42.805,6.029,13.3032,4.60129,2470.74,2022-10-17T14:17:57Z
2022-10-17T12:19:05Z,42.805,6.029,13.3046,4.60119,2470.763,2022-10-17T14:21:00Z
2022-10-17T12:22:08Z,42.805,6.029,13.3031,4.60094,2470.74,2022-10-17T14:24:03Z
2022-10-17T12:25:11Z,42.805,6.029,13.3035,4.60113,2470.754,2022-10-17T14:27:06Z
2022-10-17T12:28:14Z,42.805,6.029,13.3039,4.60117,2470.717,2022-10-17T14:30:09Z
2022-10-17T12:31:17Z,42.805,6.029,13.3031,4.60138,2470.74,2022-10-17T14:33:12Z
2022-10-17T12:34:20Z,42.805,6.029,13.3026,4.60107,2470.717,2022-10-17T14:36:15Z
2022-10-17T12:37:23Z,42.805,6.029,13.3036,4.60132,2470.754,2022-10-17T14:39:18Z
2022-10-17T12:40:26Z,42.805,6.029,13.3026,4.60127,2470.707,2022-10-17T14:42:21Z
2022-10-17T12:43:29Z,42.805,6.029,13.3026,4.60120,2470.763,2022-10-17T14:45:25Z
2022-10-17T12:46:32Z,42.805,6.029,13.3031,4.60119,2470.74,2022-10-17T14:48:28Z
2022-10-17T12:49:35Z,42.805,6.029,13.3036,4.60130,2470.777,2022-10-17T14:51:31Z
2022-10-17T12:52:38Z,42.805,6.029,13.3031,4.60155,2470.777,2022-10-17T14:54:34Z
2022-10-17T12:55:41Z,42.805,6.029,13.3041,4.60131,2470.74,2022-10-17T14:57:37Z
2022-10-17T12:58:45Z,42.805,6.029,13.3034,4.60135,2470.717,2022-10-17T15:00:40Z
2022-10-17T13:01:48Z,42.805,6.029,13.3028,4.60133,2470.74,2022-10-17T15:03:43Z
2022-10-17T13:04:51Z,42.805,6.029,13.3033,4.60123,2470.74,2022-10-17T15:06:46Z
2022-10-17T13:07:54Z,42.805,6.029,13.3040,4.60114,2470.74,2022-10-17T15:09:49Z
2022-10-17T13:10:57Z,42.805,6.029,13.3024,4.60103,2470.73,2022-10-17T15:12:52Z
2022-10-17T13:14:00Z,42.805,6.029,13.3024,4.60124,2470.754,2022-10-17T15:15:55Z
2022-10-17T13:17:03Z,42.805,6.029,13.3029,4.60127,2470.777,2022-10-17T15:18:58Z
2022-10-17T13:20:06Z,42.805,6.029,13.3043,4.60137,2470.74,2022-10-17T15:22:01Z
2022-10-17T13:23:09Z,42.805,6.029,13.3037,4.60137,2470.74,2022-10-17T15:25:05Z
2022-10-17T13:26:12Z,42.805,6.029,13.3027,4.60120,2470.717,2022-10-17T15:28:08Z
2022-10-17T13:29:15Z,42.805,6.029,13.3030,4.60115,2470.754,2022-10-17T15:31:11Z
2022-10-17T13:32:18Z,42.805,6.029,13.3028,4.60127,2470.74,2022-10-17T15:34:14Z
2022-10-17T13:35:22Z,42.805,6.029,13.3023,4.60130,2470.74,2022-10-17T15:37:17Z
2022-10-17T13:38:25Z,42.805,6.029,13.3039,4.60126,2470.74,2022-10-17T15:40:20Z
2022-10-17T13:41:28Z,42.805,6.029,13.3033,4.60155,2470.717,2022-10-17T15:43:23Z
2022-10-17T13:44:31Z,42.805,6.029,13.3031,4.60137,2470.74,2022-10-17T15:46:26Z
2022-10-17T13:47:34Z,42.805,6.029,13.3039,4.60127,2470.754,2022-10-17T15:49:29Z
2022-10-17T13:50:37Z,42.805,6.029,13.3027,4.60118,2470.74,2022-10-17T15:52:32Z
2022-10-17T13:53:40Z,42.805,6.029,13.3026,4.60140,2470.754,2022-10-17T15:55:35Z
2022-10-17T13:56:43Z,42.805,6.029,13.3028,4.60130,2470.717,2022-10-17T15:58:39Z
2022-10-17T13:59:46Z,42.805,6.029,13.3034,4.60105,2470.74,2022-10-17T16:01:42Z
2022-10-17T14:02:49Z,42.805,6.029,13.3030,4.60130,2470.717,2022-10-17T16:04:45Z
2022-10-17T14:05:52Z,42.805,6.029,13.3048,4.60144,2470.73,2022-10-17T16:07:48Z
2022-10-17T14:08:55Z,42.805,6.029,13.3026,4.60113,2470.74,2022-10-17T16:10:51Z
2022-10-17T14:11:59Z,42.805,6.029,13.3031,4.60119,2470.73,2022-10-17T16:13:54Z
2022-10-17T14:15:02Z,42.805,6.029,13.3019,4.60092,2470.754,2022-10-17T16:16:57Z
2022-10-17T14:18:05Z,42.805,6.029,13.3033,4.60107,2470.754,2022-10-17T16:20:00Z
2022-10-17T14:21:08Z,42.805,6.029,13.3022,4.60119,2470.717,2022-10-17T16:23:03Z
2022-10-17T14:24:11Z,42.805,6.029,13.3024,4.60104,2470.707,2022-10-17T16:26:06Z
2022-10-17T14:27:14Z,42.805,6.029,13.3033,4.60091,2470.74,2022-10-17T16:29:09Z
2022-10-17T14:30:17Z,42.805,6.029,13.3021,4.60125,2470.74,2022-10-17T16:32:12Z
2022-10-17T14:33:20Z,42.805,6.029,13.3034,4.60087,2470.754,2022-10-17T16:35:15Z
2022-10-17T14:36:23Z,42.805,6.029,13.3032,4.60092,2470.73,2022-10-17T16:38:19Z
2022-10-17T14:39:26Z,42.805,6.029,13.3031,4.60084,2470.717,2022-10-17T16:41:22Z
2022-10-17T14:42:29Z,42.805,6.029,13.3024,4.60099,2470.73,2022-10-17T16:44:25Z
2022-10-17T14:45:32Z,42.805,6.029,13.3022,4.60104,2470.717,2022-10-17T16:47:28Z
2022-10-17T14:48:36Z,42.805,6.029,13.3026,4.60112,2470.717,2022-10-17T16:50:31Z
2022-10-17T14:51:39Z,42.805,6.029,13.3020,4.60112,2470.777,2022-10-17T16:53:34Z
2022-10-17T14:54:42Z,42.805,6.029,13.3024,4.60125,2470.717,2022-10-17T16:56:37Z
2022-10-17T14:57:45Z,42.805,6.029,13.3028,4.60117,2470.74,2022-10-17T16:59:40Z
2022-10-17T15:00:48Z,42.805,6.029,13.3029,4.60106,2470.707,2022-10-17T17:02:43Z